Lid_Strength_Index
-0 -1 -1 -1 -1 -1 -1 -0 -0 -0 -0 -0 -0 -0 -0 -1 -0 1 2 -0 2 5 4 4 4 5 5 5 8 7 7 7 9 11 11 12 13 12 11 10 11 13 14 15 13 16 18 10 9 13 11 9 10 7
-1 -1 -1 -1 -1 -1 -0 -0 -0 -0 -0 -0 -0 -0 -0 -0 -1 1 5 -0 -0 4 5 2 2 1 2 3 5 5 6 7 6 9 9 9 10 9 10 13 8 12 10 12 12 12 8 8 9 8 8 9 9 7
-1 -1 -1 -1 -1 -1 -1 -0 -1 -0 -0 -0 -0 -0 -0 -0 -1 -0 2 2 3 4 4 4 4 1 0 1 0 6 5 5 5 3 6 7 10 8 11 11 10 8 7 9 10 9 9 7 7 7 8 9 7 6
-1 -0 -0 -1 -1 -0 -0 -1 -0 -1 -0 -0 -0 -0 -0 -1 -1 -0 2 2 2 4 8 6 1 3 1 0 1 1 3 3 3 4 6 7 9 6 9 8 9 7 7 9 9 8 9 7 7 7 8 8 7 6
-0 -0 -0 -0 -0 0 -0 -1 -0 -0 -0 -0 -0 -0 -1 -1 -0 0 2 2 0 5 7 5 2 2 1 1 2 2 3 4 5 6 7 8 6 7 7 7 8 6 8 9 10 7 8 9 7 7 7 8 7 8
-1 -0 -0 -1 -1 -1 -0 -0 -0 -1 -0 -0 -0 0 0 1 1 2 5 1 -0 0 5 8 3 3 2 2 2 3 3 3 4 6 6 5 4 6 9 10 7 5 5 5 6 5 6 6 6 6 7 7 7 7
-1 -1 -1 -1 -1 -1 -0 0 -0 0 -0 0 0 1 1 0 0 3 5 2 -0 -0 5 7 7 3 3 3 3 3 3 4 5 5 6 6 6 6 8 10 7 5 5 4 4 4 6 6 6 5 6 6 6 7
-1 -1 -1 -1 -1 -1 -0 0 0 0 0 0 1 1 1 1 0 2 0 -0 -1 3 3 8 7 6 3 5 5 2 5 4 5 6 5 7 6 7 10 7 6 5 5 5 4 4 4 4 5 5 5 6 7 6
0 -0 -0 -0 -0 -0 -0 -0 -0 0 1 1 1 1 0 1 4 3 1 0 -1 2 8 7 9 10 3 4 3 3 3 8 4 7 7 6 8 10 8 8 8 7 7 6 5 4 4 4 5 5 5 6 7 6
0 0 0 0 0 -0 -0 -1 -1 -0 -0 1 0 2 7 2 1 1 1 5 4 3 4 7 4 7 4 4 6 6 6 8 10 7 6 8 9 7 7 6 6 6 6 5 7 7 6 5 5 4 5 5 6 5
1 0 0 0 0 0 -0 -0 -0 -0 0 -0 3 4 0 0 2 3 7 7 6 8 5 4 5 7 3 7 7 6 9 8 12 9 10 10 11 8 6 7 6 5 4 5 4 4 4 4 4 4 4 3 4 4
1 1 1 0 1 0 0 0 0 0 1 2 2 1 1 3 5 8 8 7 8 9 5 6 5 5 4 3 7 7 10 9 13 7 10 12 9 7 6 7 6 5 5 4 4 4 3 4 3 4 4 4 3 4
1 1 0 0 1 1 1 1 0 1 1 1 3 6 5 6 10 11 12 10 9 6 5 5 7 5 5 5 8 8 11 11 7 10 11 9 7 7 7 6 6 5 5 4 4 4 3 4 3 4 5 5 6 7
1 1 1 0 0 0 0 0 0 1 2 4 7 10 9 10 9 8 8 7 5 5 5 5 7 7 6 8 8 11 9 9 12 13 12 8 8 7 6 7 7 7 7 6 6 6 6 6 6 6 7 7 7 8
2 1 1 1 1 0 -0 -0 0 1 3 7 7 11 10 7 6 6 5 5 4 4 5 7 7 7 9 9 8 9 11 13 11 12 10 8 6 6 7 8 7 7 7 7 6 6 7 7 7 7 7 7 7 8
2 2 2 2 2 1 0 -0 -0 0 3 6 7 9 6 7 7 7 6 6 4 4 4 5 8 10 10 9 11 11 12 12 11 8 7 6 6 6 7 7 7 7 7 6 6 7 6 7 7 7 7 7 7 7
3 3 3 2 2 1 1 1 1 4 6 7 7 5 6 6 7 6 5 5 2 5 8 7 11 11 7 10 11 8 11 10 8 7 6 6 7 7 7 7 7 6 7 6 6 6 7 6 6 7 7 7 7 7
4 2 2 2 2 2 1 2 4 5 8 6 7 6 5 5 6 6 5 4 4 6 6 9 6 10 11 12 10 8 7 7 6 6 6 6 7 7 7 7 7 6 6 6 6 6 6 7 6 6 6 6 6 6
4 3 3 3 3 4 5 5 4 8 7 5 4 4 4 5 4 4 4 4 3 3 5 7 9 10 9 7 7 6 6 5 6 6 6 6 7 8 7 7 6 6 7 6 6 6 6 5 5 5 5 5 6 6
4 3 3 3 3 6 8 6 3 7 8 5 4 5 5 5 4 4 4 4 5 6 7 9 8 7 6 5 4 5 5 5 5 7 7 6 5 6 6 6 6 7 7 6 6 7 6 6 5 4 4 5 5 5
5 4 4 4 4 5 6 7 7 6 6 7 5 5 5 4 5 5 5 4 7 7 8 7 6 5 4 5 4 5 6 6 7 7 7 6 6 5 6 6 7 7 7 7 7 7 7 7 6 6 5 4 3 3
4 5 5 4 7 7 7 6 7 6 7 6 6 5 6 7 6 5 4 6 7 8 7 7 7 6 6 6 5 5 6 6 6 6 7 6 7 7 7 7 7 7 7 7 7 8 8 7 6 6 6 6 5 4
6 6 7 7 10 10 10 6 9 7 10 9 7 9 8 7 6 4 6 7 7 6 6 6 6 6 7 7 6 7 6 7 7 8 8 8 7 7 7 6 6 7 8 8 7 8 8 7 7 7 6 6 6 6
8 9 12 11 11 12 10 11 8 10 9 11 12 13 11 9 7 9 10 8 8 7 7 7 7 7 7 7 8 8 8 7 7 8 8 8 8 7 6 6 7 7 7 7 7 7 7 7 7 7 7 7 7 7
13 14 13 15 12 14 14 14 14 12 15 14 15 14 12 9 11 11 11 10 9 8 8 7 7 7 8 8 7 8 7 8 8 8 8 7 7 6 6 6 6 7 7 8 8 8 7 7 7 7 7 7 8 7
16 14 15 14 14 15 15 17 17 16 16 17 15 12 11 12 14 14 11 10 9 8 8 8 8 8 7 8 9 9 9 7 7 7 8 8 8 8 9 9 8 7 7 8 9 9 9 8 8 8 8 8 8 8
16 16 14 12 13 14 14 14 14 15 17 17 14 15 14 17 15 12 9 8 9 7 7 7 7 8 8 8 8 8 7 7 7 7 6 7 7 8 8 10 10 9 8 8 9 9 9 9 9 9 9 8 8 8
15 14 17 16 15 14 17 17 17 18 15 13 13 17 17 15 14 9 9 7 7 7 7 7 6 7 7 7 7 7 7 7 6 6 6 6 6 7 8 8 8 8 8 8 8 9 9 9 9 9 9 8 8 7
17 15 15 19 17 16 16 16 16 14 12 13 15 15 14 11 9 9 8 7 7 7 8 8 7 6 6 6 6 7 7 8 9 11 11 9 8 8 8 8 8 8 8 8 8 8 8 8 8 8 8 8 7 7
17 14 16 18 19 18 15 13 13 11 11 11 11 11 11 10 8 7 8 8 9 9 8 7 7 7 7 7 7 8 7 8 9 10 10 11 10 9 8 8 8 8 8 8 8 8 7 7 7 6 7 7 7 8
15 15 16 17 17 14 13 12 13 13 14 13 12 13 13 11 9 8 8 8 8 8 8 9 9 8 8 8 7 8 9 8 10 10 10 10 9 9 8 9 8 7 8 8 8 8 8 9 8 7 8 8 9 9
16 17 17 19 17 15 15 15 14 15 14 15 14 13 12 13 14 10 8 9 10 10 9 8 8 8 8 7 8 8 12 9 9 10 11 11 10 10 10 9 8 7 7 8 7 7 8 8 8 8 8 9 9 9
18 17 17 17 18 18 16 16 17 17 16 16 15 13 12 13 14 9 8 8 9 9 8 8 7 7 8 9 9 8 10 8 11 12 12 12 13 12 12 9 8 8 8 8 7 7 8 8 8 8 8 9 9 10